TimeEST,TemperatureF,Dew PointF,Humidity,Sea Level PressureIn,VisibilityMPH,Wind Direction,Wind SpeedMPH,Gust SpeedMPH,PrecipitationIn,Events,Conditions,WindDirDegrees,DateUTC
12:51 AM,52.0,45.0,77,29.97,-9999.0,SSE,6.9,-,N/A,,Unknown,160,2012-11-11 05:51:00
1:51 AM,54.0,46.0,75,29.97,-9999.0,South,4.6,-,N/A,,Unknown,170,2012-11-11 06:51:00
2:51 AM,55.9,46.0,69,29.98,-9999.0,Variable,3.5,-,N/A,,Unknown,0,2012-11-11 07:51:00
3:51 AM,57.9,46.0,65,29.98,-9999.0,SW,8.1,-,N/A,,Unknown,220,2012-11-11 08:51:00
4:51 AM,57.9,45.0,62,30.00,-9999.0,Variable,5.8,-,N/A,,Unknown,0,2012-11-11 09:51:00
5:51 AM,59.0,44.1,58,30.02,-9999.0,Variable,3.5,-,N/A,,Unknown,0,2012-11-11 10:51:00
6:51 AM,59.0,44.1,58,30.03,-9999.0,Variable,3.5,-,N/A,,Unknown,0,2012-11-11 11:51:00
7:51 AM,60.1,43.0,53,30.04,-9999.0,Variable,4.6,-,N/A,,Unknown,0,2012-11-11 12:51:00
8:51 AM,60.1,44.1,55,30.04,-9999.0,Variable,5.8,-,N/A,,Unknown,0,2012-11-11 13:51:00
9:51 AM,60.1,45.0,57,30.04,-9999.0,Variable,6.9,-,N/A,,Unknown,0,2012-11-11 14:51:00
10:51 AM,62.1,46.9,58,30.02,-9999.0,South,8.1,-,N/A,,Unknown,180,2012-11-11 15:51:00
11:51 AM,64.0,46.9,54,29.99,-9999.0,South,11.5,24.2,N/A,,Unknown,170,2012-11-11 16:51:00
12:51 PM,64.9,46.9,52,29.97,-9999.0,South,9.2,21.9,N/A,,Unknown,180,2012-11-11 17:51:00
1:51 PM,64.9,46.9,52,29.96,-9999.0,South,9.2,21.9,N/A,,Unknown,170,2012-11-11 18:51:00
2:51 PM,64.0,46.9,54,29.94,-9999.0,South,8.1,25.3,N/A,,Unknown,170,2012-11-11 19:51:00
3:51 PM,64.0,48.0,56,29.94,-9999.0,SSE,10.4,17.3,N/A,,Unknown,160,2012-11-11 20:51:00
4:51 PM,61.0,46.9,60,29.94,-9999.0,SSE,11.5,26.5,N/A,,Unknown,160,2012-11-11 21:51:00
5:51 PM,60.1,44.1,55,29.93,-9999.0,SSE,13.8,26.5,N/A,,Unknown,160,2012-11-11 22:51:00
6:51 PM,60.1,39.9,47,29.93,-9999.0,South,10.4,26.5,N/A,,Unknown,170,2012-11-11 23:51:00
7:51 PM,59.0,39.0,48,29.91,-9999.0,South,12.7,21.9,N/A,,Unknown,170,2012-11-12 00:51:00
8:51 PM,59.0,37.9,46,29.91,-9999.0,South,10.4,23.0,N/A,,Unknown,180,2012-11-12 01:51:00
9:51 PM,59.0,37.0,44,29.91,-9999.0,South,11.5,20.7,N/A,,Unknown,180,2012-11-12 02:51:00
10:51 PM,60.1,36.0,41,29.90,-9999.0,Variable,6.9,-,N/A,,Unknown,0,2012-11-12 03:51:00
11:51 PM,61.0,37.0,41,29.88,-9999.0,South,8.1,25.3,N/A,,Unknown,170,2012-11-12 04:51:00